EHI
0 0 0 0 0 0 0 0 0 0 0 0 2 2 1 0 0 0 1 2 2 1 2 2 2 1 3 4 6 5 4 4 5 6 5 5 5 5 4 3 3 3 2 1
0 0 0 0 0 0 0 0 0 0 0 0 2 3 2 1 0 1 3 3 3 3 3 4 3 3 6 8 7 5 4 4 5 5 4 4 4 4 3 3 3 3 3 2
0 0 0 0 0 0 0 0 0 0 0 0 2 3 4 3 2 3 5 5 4 4 5 6 6 6 9 10 8 5 5 7 7 6 4 4 4 3 3 3 4 4 4 3
0 0 0 0 0 0 0 0 0 0 0 0 0 2 4 4 4 4 5 5 4 3 4 6 7 10 11 10 8 8 9 12 12 10 7 6 6 5 4 4 5 4 4 4
0 0 0 0 0 0 0 0 0 0 0 0 0 0 2 3 3 4 6 5 3 2 2 4 8 12 13 11 10 11 14 16 16 14 11 9 7 6 5 5 6 5 5 6
0 0 0 0 0 0 0 0 0 0 0 0 0 0 1 2 2 4 5 5 3 2 1 3 8 13 13 12 11 13 16 19 19 18 16 13 10 7 5 5 6 6 7 8
0 0 0 0 0 0 0 0 0 0 0 0 0 0 1 2 2 3 5 5 3 2 2 4 9 13 14 14 13 14 17 20 22 21 20 17 13 8 6 6 6 6 8 10
0 0 0 0 0 0 0 0 0 0 0 0 0 0 1 2 2 3 4 4 4 3 3 5 9 13 15 15 13 14 17 20 21 19 17 16 12 9 8 9 7 7 7 9
0 0 0 0 0 0 0 0 0 0 0 0 0 0 2 2 3 3 4 4 4 3 3 4 7 10 13 14 13 14 17 19 16 13 12 11 10 10 10 12 11 8 7 7
0 0 0 0 0 0 0 0 0 0 0 0 0 0 2 3 3 3 3 4 5 4 4 5 6 8 11 13 13 13 16 17 13 10 9 9 9 10 11 12 12 11 9 9
0 0 0 0 0 0 0 0 0 0 0 0 0 0 1 2 2 1 2 4 5 4 5 7 8 8 10 12 11 11 12 14 14 13 12 11 10 11 10 11 12 11 11 12
0 0 0 0 0 0 0 0 0 0 0 0 0 0 0 0 0 1 3 5 6 7 9 12 11 9 9 10 10 9 8 10 14 15 14 12 12 12 11 10 11 11 12 13
0 0 0 0 0 0 0 0 0 0 0 0 0 0 0 0 0 1 4 7 8 10 14 15 13 10 10 11 10 10 9 9 11 13 13 13 12 11 10 9 9 9 11 11
0 0 0 0 0 0 0 0 0 0 0 0 1 2 2 1 1 3 6 9 11 14 16 16 14 13 13 14 13 12 11 10 10 10 11 12 12 10 7 6 6 7 8 8
0 0 0 0 0 0 0 0 0 0 0 1 2 2 3 3 3 4 8 11 14 17 18 17 17 16 17 17 17 15 13 12 11 10 9 9 9 8 5 3 3 4 4 4
0 0 0 0 0 0 0 0 0 0 0 1 2 2 3 4 3 3 7 11 15 18 21 21 20 18 18 18 18 17 14 12 11 9 7 7 7 6 5 3 2 1 1 2
0 0 0 0 0 0 0 0 0 0 0 1 1 2 3 3 3 2 5 10 14 18 24 25 23 20 19 18 17 16 13 11 10 7 6 5 6 6 6 4 3 2 2 3
0 0 0 0 0 0 0 0 0 0 0 0 1 2 3 3 3 2 4 8 11 16 22 25 24 20 18 18 16 15 13 12 9 6 4 4 4 5 5 5 5 4 4 5
0 0 0 0 0 0 0 0 0 0 0 1 1 3 3 3 2 2 4 7 8 12 18 22 22 19 18 17 16 14 12 11 8 6 4 3 3 4 4 5 5 6 7 8
0 0 0 0 0 0 0 0 0 0 1 2 3 3 3 2 2 5 8 10 10 12 15 19 20 19 17 16 16 14 11 9 7 6 5 4 4 4 5 6 7 7 7 7
0 0 0 0 0 0 0 0 1 1 2 2 3 3 3 4 7 11 14 16 17 16 17 20 21 21 20 19 17 15 12 9 9 8 7 7 6 6 6 7 8 7 5 5
0 0 0 0 0 0 0 0 1 1 1 1 2 3 6 9 13 16 19 21 22 21 22 23 24 23 23 21 20 18 14 11 10 10 10 10 9 7 6 7 7 6 4 4
0 0 0 0 0 0 0 0 1 1 0 0 1 3 6 10 14 17 20 23 23 24 25 25 24 24 23 21 21 19 15 13 12 12 12 12 10 9 7 6 5 5 5 5
1 0 0 0 0 0 0 0 0 0 0 0 0 2 5 9 12 14 17 19 20 23 25 24 24 24 22 21 21 20 16 13 12 13 13 12 11 9 8 7 6 5 5 5
1 1 1 0 0 0 0 0 0 0 0 1 1 3 4 8 12 13 14 15 16 18 20 21 22 24 23 22 21 18 16 13 12 12 12 12 11 10 10 8 7 5 5 4
1 2 2 1 1 1 1 0 0 0 1 2 3 4 5 8 11 12 11 12 14 15 16 17 19 23 24 23 19 16 14 12 11 11 11 11 11 11 11 9 7 5 4 4
Wind_Speed
7 9 7 5 5 5 4 4 3 1 1 3 2 2 3 5 6 5 5 6 6 6 6 5 4 4 4 4 4 3 2 3 2 1 1 2 2 2 2 3 4 3 3 3
9 10 6 4 4 6 6 6 3 2 2 3 2 2 2 5 6 5 5 6 6 6 6 5 5 5 5 4 3 3 3 3 2 2 1 1 1 1 2 2 3 2 2 2
11 3 3 6 6 7 7 6 4 2 3 5 5 5 5 6 6 5 5 5 6 6 6 7 6 5 5 5 4 3 2 3 3 2 2 2 2 1 2 2 2 2 2 2
9 4 5 7 7 8 6 3 4 4 6 4 5 4 4 6 6 6 6 5 5 6 6 7 7 6 5 5 4 3 3 3 3 3 2 2 1 1 1 1 2 2 2 1
7 6 7 9 6 7 3 1 4 6 7 6 5 6 3 6 5 6 6 5 5 5 6 6 6 6 6 5 4 4 3 3 3 2 2 2 1 1 1 1 2 1 2 1
7 5 6 6 4 5 4 5 5 7 8 7 4 6 1 3 3 4 6 6 6 5 6 6 6 6 6 6 5 5 4 4 3 3 3 2 1 0 0 0 1 1 1 1
9 9 7 6 7 8 8 8 6 7 6 3 2 5 1 3 1 3 5 6 6 6 6 6 6 6 6 6 5 5 5 4 4 4 3 2 2 2 2 1 1 1 0 1
10 9 9 8 9 7 9 10 7 5 4 2 5 4 2 3 2 3 5 6 6 6 6 6 6 6 5 5 4 4 5 4 4 4 3 3 3 2 1 1 1 1 0 1
7 7 7 6 6 8 8 9 7 8 7 6 2 2 4 4 5 5 6 6 6 6 6 7 6 6 5 5 4 4 4 4 4 4 3 3 2 1 1 1 1 0 0 0
6 6 7 7 7 5 7 6 5 7 6 7 4 5 2 5 5 6 6 6 6 6 6 7 6 5 5 4 4 4 4 4 3 4 3 3 2 2 2 1 0 0 1 1
9 8 7 9 10 9 8 8 7 6 7 8 5 1 3 2 4 5 6 6 6 6 6 6 6 5 4 4 4 4 4 4 3 3 3 2 2 2 2 1 1 1 0 1
8 8 8 8 4 5 9 8 9 8 6 7 8 0 5 2 3 4 5 6 6 6 6 6 6 5 4 4 4 4 4 3 3 2 2 2 2 2 1 1 1 1 1 1
5 8 9 9 10 9 9 9 10 10 8 7 9 2 6 3 3 4 5 6 6 6 7 7 6 5 4 4 3 3 3 3 3 2 2 2 2 2 2 1 1 1 1 1
5 8 10 10 6 7 9 10 10 11 9 9 9 6 3 3 4 5 5 6 7 7 7 6 6 5 4 4 3 3 3 3 3 2 2 2 2 2 2 1 1 1 1 1
6 9 9 8 6 7 9 10 11 12 12 11 8 7 5 3 3 4 5 6 7 7 7 6 6 5 4 4 3 3 2 2 2 2 2 2 1 1 1 2 1 1 1 1
5 7 8 9 8 10 11 10 11 12 12 12 10 8 2 2 3 4 5 6 7 7 7 6 6 5 4 4 4 3 3 3 2 2 2 2 2 2 2 2 2 2 1 1
5 6 9 10 8 10 13 11 12 11 11 11 11 5 3 3 3 4 5 6 6 6 6 6 6 5 4 4 4 4 3 3 3 3 2 2 2 2 2 3 2 2 2 2
6 7 7 9 8 13 5 2 6 9 8 8 6 3 4 3 3 3 4 5 5 5 6 5 5 5 5 5 4 4 4 3 3 3 2 2 3 3 3 3 3 3 3 3
7 7 8 9 12 11 5 3 4 7 6 3 3 3 3 3 4 4 4 4 4 4 4 4 4 4 4 4 4 4 4 3 3 3 2 3 3 3 3 3 3 3 3 3
7 8 9 9 12 11 3 2 1 5 6 1 2 3 4 6 6 4 4 3 3 3 4 4 4 4 4 3 3 3 3 3 2 2 2 3 3 4 4 4 4 4 4 4
9 9 11 11 12 7 3 2 4 7 1 2 1 3 4 4 2 4 4 3 3 3 4 4 4 4 3 3 3 3 3 2 2 2 3 2 2 3 3 3 4 4 4 4
9 8 9 9 11 5 4 2 2 3 3 1 0 2 2 2 2 3 3 3 3 3 3 4 3 3 3 3 3 2 1 1 1 2 2 2 3 3 2 3 4 4 4 5
6 5 4 4 2 4 2 1 2 2 1 1 1 0 1 2 2 2 2 2 3 2 2 3 3 4 3 3 2 2 1 1 1 2 2 2 3 3 3 4 4 4 4 5
4 1 3 3 2 1 1 1 1 1 1 1 0 0 2 2 2 2 2 2 2 2 2 3 3 3 3 2 2 1 1 0 1 1 2 2 2 3 3 3 4 4 4 4
3 4 4 4 2 1 2 1 1 1 1 1 0 0 1 2 2 2 2 1 1 1 1 2 2 3 2 2 2 1 1 0 1 1 2 2 2 2 2 3 3 4 3 4
5 5 6 4 2 3 1 1 1 1 1 0 0 1 1 1 2 2 2 1 1 1 1 1 2 2 1 1 2 1 0 0 1 1 2 2 2 2 2 2 2 1 3 2
Wind_Direction
202 228 231 239 260 293 288 275 286 357 117 235 228 211 175 178 191 186 179 177 178 176 166 168 168 166 157 148 146 142 128 121 129 120 118 99 91 86 85 76 69 70 69 77
212 225 237 250 246 251 247 250 244 194 179 246 244 244 184 182 196 198 192 183 183 178 167 170 175 170 166 160 162 158 152 141 150 127 117 99 63 77 81 77 82 70 73 81
228 218 207 228 226 236 240 258 270 266 200 218 243 212 178 173 190 192 202 198 190 186 178 174 175 175 170 169 172 163 153 149 151 152 158 139 144 161 123 107 101 78 80 87
233 217 215 229 234 243 239 261 262 240 239 225 251 263 163 172 182 188 193 195 193 188 182 174 171 174 172 169 163 159 156 153 154 172 170 171 159 108 75 74 86 90 89 90
213 206 218 231 235 243 263 214 238 244 253 260 233 266 148 166 192 190 189 190 194 190 181 174 172 166 168 163 158 150 150 149 154 166 162 195 182 148 116 93 87 76 83 79
238 215 237 243 229 220 195 196 211 230 243 249 247 265 210 156 202 187 180 179 184 178 174 171 162 159 163 165 166 156 154 153 155 164 164 183 176 179 47 52 111 157 119 105
216 212 207 214 208 189 215 230 227 222 223 235 162 254 327 86 135 186 179 173 168 166 167 167 162 163 166 168 170 162 160 162 162 165 167 177 187 187 192 231 185 250 138 106
214 203 195 206 226 218 222 245 259 273 271 221 183 246 98 110 138 167 168 167 163 161 162 163 162 161 164 168 170 165 165 165 166 170 171 177 192 207 197 226 258 238 314 63
226 205 175 199 223 239 222 234 267 273 272 268 222 193 168 164 173 171 166 164 163 160 158 160 158 154 158 162 161 162 164 167 172 173 172 181 198 226 201 191 235 230 334 113
251 230 186 174 193 214 256 242 234 255 269 266 235 233 204 169 172 169 174 171 162 160 155 152 151 150 155 155 150 155 161 169 174 178 190 177 187 193 193 216 211 9 356 352
242 234 199 193 214 207 199 213 236 255 270 276 272 211 72 143 171 176 175 170 167 166 158 152 148 147 147 148 151 159 160 164 175 184 188 184 185 178 186 193 191 171 216 231
225 241 230 211 199 253 236 234 229 242 244 261 278 283 94 115 167 168 163 157 159 164 159 154 149 151 155 155 158 163 164 168 176 178 184 183 186 187 199 179 193 208 214 219
200 234 226 211 195 200 224 229 241 252 253 251 264 229 116 130 148 155 156 153 155 159 157 155 158 161 163 161 162 164 171 175 182 180 186 184 198 194 203 205 201 207 223 232
247 242 247 254 248 212 218 221 232 244 249 254 258 267 194 183 168 162 159 156 157 159 162 159 161 163 165 169 170 174 177 181 185 192 200 199 212 216 225 232 235 235 238 244
246 241 246 261 267 257 243 234 228 242 259 270 272 266 259 216 187 167 169 164 164 163 166 163 167 165 172 175 177 180 180 183 186 199 209 206 216 214 233 237 230 228 242 238
253 255 246 243 237 243 244 244 239 240 250 256 261 264 256 167 162 166 175 175 174 174 174 171 170 171 180 185 190 189 192 191 191 199 210 207 214 221 227 230 222 223 238 254
230 238 248 248 237 242 239 242 247 246 249 257 262 264 177 182 188 190 183 185 183 178 176 177 181 184 188 192 192 193 189 192 193 200 210 213 219 223 228 234 229 229 235 243
237 246 251 252 240 245 255 283 264 260 257 264 267 251 216 196 178 186 185 180 178 175 175 178 182 183 181 180 184 185 181 186 193 206 217 219 221 226 231 234 232 234 236 239
224 232 249 249 244 242 218 207 237 246 246 261 259 219 188 154 172 172 162 167 172 180 178 174 176 171 164 169 173 178 183 183 198 214 227 231 231 234 234 235 238 239 237 237
198 220 242 243 252 253 233 129 226 250 230 156 224 199 188 193 217 150 137 159 169 169 166 169 168 162 158 160 163 172 177 188 211 226 237 238 238 240 240 239 242 243 239 239
198 212 232 242 248 248 76 119 212 237 337 58 221 206 199 209 339 87 129 149 156 158 157 158 158 156 155 160 168 178 186 202 224 232 238 239 245 246 242 244 247 247 247 249
230 228 227 238 245 237 85 167 238 8 29 29 283 210 183 144 109 109 117 134 146 146 149 153 155 148 146 157 167 168 183 219 225 230 236 245 252 258 247 243 248 248 249 246
244 276 276 272 307 57 74 23 31 4 1 355 332 263 167 167 152 136 133 132 138 139 138 147 150 148 148 153 157 167 177 231 231 236 247 259 266 267 261 246 241 239 236 246
197 249 254 238 221 96 78 36 20 2 359 346 330 186 177 172 158 155 143 137 140 136 140 159 158 150 145 144 143 153 144 251 235 243 255 255 257 262 259 259 251 252 252 255
261 223 231 230 222 217 206 246 345 357 7 26 74 141 165 158 166 164 153 144 145 143 157 170 161 150 145 131 126 127 131 219 258 266 270 267 257 262 268 262 266 264 266 270
233 239 247 247 211 252 236 316 306 282 269 277 133 156 182 167 172 164 149 141 150 142 141 142 148 143 139 131 114 89 77 158 268 267 277 281 278 266 264 268 271 251 261 258